owner,sensor,date,latitude,longitude,vertical_datum,sea_water_temperature,qcFlag 
TCOON,ioos:station:TCOON:057:1,2017-03-01T00:18:00Z,28.4460,-96.3961,0.0,27.8,2 
TCOON,ioos:station:TCOON:057:1,2017-03-01T01:18:00Z,28.4460,-96.3961,0.0,27.7,2 
TCOON,ioos:station:TCOON:057:1,2017-03-01T02:18:00Z,28.4460,-96.3961,0.0,27.7,2 
TCOON,ioos:station:TCOON:057:1,2017-03-01T03:18:00Z,28.4460,-96.3961,0.0,27.7,2 
TCOON,ioos:station:TCOON:057:1,2017-03-01T04:18:00Z,28.4460,-96.3961,0.0,27.8,2 
TCOON,ioos:station:TCOON:057:1,2017-03-01T05:18:00Z,28.4460,-96.3961,0.0,27.9,2 
TCOON,ioos:station:TCOON:057:1,2017-03-01T06:18:00Z,28.4460,-96.3961,0.0,28.0,2 
TCOON,ioos:station:TCOON:057:1,2017-03-01T07:18:00Z,28.4460,-96.3961,0.0,28.0,2 
TCOON,ioos:station:TCOON:057:1,2017-03-01T08:18:00Z,28.4460,-96.3961,0.0,28.0,2 
TCOON,ioos:station:TCOON:057:1,2017-03-01T09:18:00Z,28.4460,-96.3961,0.0,28.1,2 
TCOON,ioos:station:TCOON:057:1,2017-03-01T10:18:00Z,28.4460,-96.3961,0.0,28.1,2 
TCOON,ioos:station:TCOON:057:1,2017-03-01T11:18:00Z,28.4460,-96.3961,0.0,28.2,2 
TCOON,ioos:station:TCOON:057:1,2017-03-01T12:18:00Z,28.4460,-96.3961,0.0,28.2,2 
TCOON,ioos:station:TCOON:057:1,2017-03-01T13:18:00Z,28.4460,-96.3961,0.0,28.1,2 
TCOON,ioos:station:TCOON:057:1,2017-03-01T14:18:00Z,28.4460,-96.3961,0.0,28.1,2 
TCOON,ioos:station:TCOON:057:1,2017-03-01T15:18:00Z,28.4460,-96.3961,0.0,28.1,2 
TCOON,ioos:station:TCOON:057:1,2017-03-01T16:18:00Z,28.4460,-96.3961,0.0,28.1,2 
TCOON,ioos:station:TCOON:057:1,2017-03-01T17:18:00Z,28.4460,-96.3961,0.0,28.3,2 
TCOON,ioos:station:TCOON:057:1,2017-03-01T18:18:00Z,28.4460,-96.3961,0.0,28.5,2 
TCOON,ioos:station:TCOON:057:1,2017-03-01T19:18:00Z,28.4460,-96.3961,0.0,28.5,2 
TCOON,ioos:station:TCOON:057:1,2017-03-01T20:18:00Z,28.4460,-96.3961,0.0,28.7,2 
TCOON,ioos:station:TCOON:057:1,2017-03-01T21:18:00Z,28.4460,-96.3961,0.0,28.8,2 
TCOON,ioos:station:TCOON:057:1,2017-03-01T22:18:00Z,28.4460,-96.3961,0.0,29.3,2 
TCOON,ioos:station:TCOON:057:1,2017-03-02T00:18:00Z,28.4460,-96.3961,0.0,28.7,2 
TCOON,ioos:station:TCOON:057:1,2017-03-02T01:18:00Z,28.4460,-96.3961,0.0,28.0,2 
TCOON,ioos:station:TCOON:057:1,2017-03-02T02:18:00Z,28.4460,-96.3961,0.0,27.5,2 
TCOON,ioos:station:TCOON:057:1,2017-03-02T03:18:00Z,28.4460,-96.3961,0.0,26.7,2 
TCOON,ioos:station:TCOON:057:1,2017-03-02T04:18:00Z,28.4460,-96.3961,0.0,25.7,2 
TCOON,ioos:station:TCOON:057:1,2017-03-02T05:18:00Z,28.4460,-96.3961,0.0,25.4,2 
TCOON,ioos:station:TCOON:057:1,2017-03-02T06:18:00Z,28.4460,-96.3961,0.0,24.8,2 
TCOON,ioos:station:TCOON:057:1,2017-03-02T07:18:00Z,28.4460,-96.3961,0.0,24.1,2 
TCOON,ioos:station:TCOON:057:1,2017-03-02T08:18:00Z,28.4460,-96.3961,0.0,23.5,2 
TCOON,ioos:station:TCOON:057:1,2017-03-02T09:18:00Z,28.4460,-96.3961,0.0,23.1,2 
TCOON,ioos:station:TCOON:057:1,2017-03-02T10:18:00Z,28.4460,-96.3961,0.0,22.8,2 
TCOON,ioos:station:TCOON:057:1,2017-03-02T11:18:00Z,28.4460,-96.3961,0.0,23.0,2 
TCOON,ioos:station:TCOON:057:1,2017-03-02T12:18:00Z,28.4460,-96.3961,0.0,23.0,2 
TCOON,ioos:station:TCOON:057:1,2017-03-02T13:18:00Z,28.4460,-96.3961,0.0,22.8,2 
TCOON,ioos:station:TCOON:057:1,2017-03-02T14:18:00Z,28.4460,-96.3961,0.0,22.7,2 
TCOON,ioos:station:TCOON:057:1,2017-03-02T15:18:00Z,28.4460,-96.3961,0.0,22.6,2 
TCOON,ioos:station:TCOON:057:1,2017-03-02T16:18:00Z,28.4460,-96.3961,0.0,23.1,2 
TCOON,ioos:station:TCOON:057:1,2017-03-02T17:18:00Z,28.4460,-96.3961,0.0,23.5,2 
TCOON,ioos:station:TCOON:057:1,2017-03-02T18:18:00Z,28.4460,-96.3961,0.0,23.8,2 
TCOON,ioos:station:TCOON:057:1,2017-03-02T19:18:00Z,28.4460,-96.3961,0.0,24.9,2 
TCOON,ioos:station:TCOON:057:1,2017-03-02T20:18:00Z,28.4460,-96.3961,0.0,25.1,2 
TCOON,ioos:station:TCOON:057:1,2017-03-02T21:18:00Z,28.4460,-96.3961,0.0,25.1,2 
TCOON,ioos:station:TCOON:057:1,2017-03-02T22:18:00Z,28.4460,-96.3961,0.0,25.2,2 
TCOON,ioos:station:TCOON:057:1,2017-03-02T23:18:00Z,28.4460,-96.3961,0.0,25.2,2 
TCOON,ioos:station:TCOON:057:1,2017-03-03T00:18:00Z,28.4460,-96.3961,0.0,25.2,2 
TCOON,ioos:station:TCOON:057:1,2017-03-03T01:18:00Z,28.4460,-96.3961,0.0,25.1,2 
TCOON,ioos:station:TCOON:057:1,2017-03-03T02:18:00Z,28.4460,-96.3961,0.0,24.6,2 
TCOON,ioos:station:TCOON:057:1,2017-03-03T03:18:00Z,28.4460,-96.3961,0.0,24.3,2 
TCOON,ioos:station:TCOON:057:1,2017-03-03T04:18:00Z,28.4460,-96.3961,0.0,24.3,2 
TCOON,ioos:station:TCOON:057:1,2017-03-03T05:18:00Z,28.4460,-96.3961,0.0,24.1,2 
TCOON,ioos:station:TCOON:057:1,2017-03-03T06:24:00Z,28.4460,-96.3961,0.0,23.8,2 
TCOON,ioos:station:TCOON:057:1,2017-03-03T07:18:00Z,28.4460,-96.3961,0.0,23.4,2 
TCOON,ioos:station:TCOON:057:1,2017-03-03T08:18:00Z,28.4460,-96.3961,0.0,23.1,2 
TCOON,ioos:station:TCOON:057:1,2017-03-03T09:18:00Z,28.4460,-96.3961,0.0,23.0,2 
TCOON,ioos:station:TCOON:057:1,2017-03-03T10:18:00Z,28.4460,-96.3961,0.0,22.7,2 
TCOON,ioos:station:TCOON:057:1,2017-03-03T11:18:00Z,28.4460,-96.3961,0.0,22.5,2 
TCOON,ioos:station:TCOON:057:1,2017-03-03T12:18:00Z,28.4460,-96.3961,0.0,22.7,2 
TCOON,ioos:station:TCOON:057:1,2017-03-03T13:18:00Z,28.4460,-96.3961,0.0,23.9,2 
TCOON,ioos:station:TCOON:057:1,2017-03-03T14:18:00Z,28.4460,-96.3961,0.0,24.2,2 
TCOON,ioos:station:TCOON:057:1,2017-03-03T15:18:00Z,28.4460,-96.3961,0.0,22.4,2 
TCOON,ioos:station:TCOON:057:1,2017-03-03T16:18:00Z,28.4460,-96.3961,0.0,22.5,2 
TCOON,ioos:station:TCOON:057:1,2017-03-03T17:18:00Z,28.4460,-96.3961,0.0,24.2,2 
TCOON,ioos:station:TCOON:057:1,2017-03-03T18:18:00Z,28.4460,-96.3961,0.0,24.2,2 
TCOON,ioos:station:TCOON:057:1,2017-03-03T19:18:00Z,28.4460,-96.3961,0.0,24.3,2 
TCOON,ioos:station:TCOON:057:1,2017-03-03T20:18:00Z,28.4460,-96.3961,0.0,24.4,2 
TCOON,ioos:station:TCOON:057:1,2017-03-03T21:18:00Z,28.4460,-96.3961,0.0,24.6,2 
TCOON,ioos:station:TCOON:057:1,2017-03-03T22:18:00Z,28.4460,-96.3961,0.0,24.8,2 
TCOON,ioos:station:TCOON:057:1,2017-03-04T00:18:00Z,28.4460,-96.3961,0.0,25.1,2 
TCOON,ioos:station:TCOON:057:1,2017-03-04T01:18:00Z,28.4460,-96.3961,0.0,25.0,2 
TCOON,ioos:station:TCOON:057:1,2017-03-04T02:18:00Z,28.4460,-96.3961,0.0,25.0,2 
TCOON,ioos:station:TCOON:057:1,2017-03-04T03:18:00Z,28.4460,-96.3961,0.0,25.0,2 
TCOON,ioos:station:TCOON:057:1,2017-03-04T04:18:00Z,28.4460,-96.3961,0.0,24.7,2 
TCOON,ioos:station:TCOON:057:1,2017-03-04T05:18:00Z,28.4460,-96.3961,0.0,24.4,2 
TCOON,ioos:station:TCOON:057:1,2017-03-04T06:18:00Z,28.4460,-96.3961,0.0,24.6,2 
TCOON,ioos:station:TCOON:057:1,2017-03-04T07:18:00Z,28.4460,-96.3961,0.0,24.6,2 
TCOON,ioos:station:TCOON:057:1,2017-03-04T08:18:00Z,28.4460,-96.3961,0.0,24.6,2 
TCOON,ioos:station:TCOON:057:1,2017-03-04T09:18:00Z,28.4460,-96.3961,0.0,24.5,2 
TCOON,ioos:station:TCOON:057:1,2017-03-04T10:18:00Z,28.4460,-96.3961,0.0,24.6,2 
TCOON,ioos:station:TCOON:057:1,2017-03-04T11:18:00Z,28.4460,-96.3961,0.0,24.7,2 
TCOON,ioos:station:TCOON:057:1,2017-03-04T12:18:00Z,28.4460,-96.3961,0.0,24.7,2 
TCOON,ioos:station:TCOON:057:1,2017-03-04T13:18:00Z,28.4460,-96.3961,0.0,24.6,2 
TCOON,ioos:station:TCOON:057:1,2017-03-04T14:18:00Z,28.4460,-96.3961,0.0,24.6,2 
TCOON,ioos:station:TCOON:057:1,2017-03-04T15:18:00Z,28.4460,-96.3961,0.0,24.5,2 
TCOON,ioos:station:TCOON:057:1,2017-03-04T16:18:00Z,28.4460,-96.3961,0.0,24.5,2 
TCOON,ioos:station:TCOON:057:1,2017-03-04T17:18:00Z,28.4460,-96.3961,0.0,24.5,2 
TCOON,ioos:station:TCOON:057:1,2017-03-04T18:18:00Z,28.4460,-96.3961,0.0,24.4,2 
TCOON,ioos:station:TCOON:057:1,2017-03-04T19:18:00Z,28.4460,-96.3961,0.0,24.4,2 
TCOON,ioos:station:TCOON:057:1,2017-03-04T20:18:00Z,28.4460,-96.3961,0.0,24.8,2 
TCOON,ioos:station:TCOON:057:1,2017-03-04T21:18:00Z,28.4460,-96.3961,0.0,24.8,2 
TCOON,ioos:station:TCOON:057:1,2017-03-04T22:18:00Z,28.4460,-96.3961,0.0,24.7,2 
TCOON,ioos:station:TCOON:057:1,2017-03-04T23:18:00Z,28.4460,-96.3961,0.0,24.6,2 
TCOON,ioos:station:TCOON:057:1,2017-03-05T00:18:00Z,28.4460,-96.3961,0.0,24.5,2 
TCOON,ioos:station:TCOON:057:1,2017-03-05T01:18:00Z,28.4460,-96.3961,0.0,24.5,2 
TCOON,ioos:station:TCOON:057:1,2017-03-05T02:18:00Z,28.4460,-96.3961,0.0,24.5,2 
TCOON,ioos:station:TCOON:057:1,2017-03-05T03:18:00Z,28.4460,-96.3961,0.0,24.5,2 
TCOON,ioos:station:TCOON:057:1,2017-03-05T04:18:00Z,28.4460,-96.3961,0.0,24.5,2 
TCOON,ioos:station:TCOON:057:1,2017-03-05T05:18:00Z,28.4460,-96.3961,0.0,24.5,2 
TCOON,ioos:station:TCOON:057:1,2017-03-05T06:24:00Z,28.4460,-96.3961,0.0,24.5,2 
TCOON,ioos:station:TCOON:057:1,2017-03-05T07:18:00Z,28.4460,-96.3961,0.0,24.5,2 
TCOON,ioos:station:TCOON:057:1,2017-03-05T08:18:00Z,28.4460,-96.3961,0.0,24.5,2 
TCOON,ioos:station:TCOON:057:1,2017-03-05T09:18:00Z,28.4460,-96.3961,0.0,24.5,2 
TCOON,ioos:station:TCOON:057:1,2017-03-05T10:18:00Z,28.4460,-96.3961,0.0,24.5,2 
TCOON,ioos:station:TCOON:057:1,2017-03-05T11:18:00Z,28.4460,-96.3961,0.0,24.6,2 
TCOON,ioos:station:TCOON:057:1,2017-03-05T12:18:00Z,28.4460,-96.3961,0.0,24.6,2 
TCOON,ioos:station:TCOON:057:1,2017-03-05T13:18:00Z,28.4460,-96.3961,0.0,24.6,2 
TCOON,ioos:station:TCOON:057:1,2017-03-05T14:18:00Z,28.4460,-96.3961,0.0,24.6,2 
TCOON,ioos:station:TCOON:057:1,2017-03-05T15:18:00Z,28.4460,-96.3961,0.0,24.7,2 
TCOON,ioos:station:TCOON:057:1,2017-03-05T16:18:00Z,28.4460,-96.3961,0.0,24.8,2 
TCOON,ioos:station:TCOON:057:1,2017-03-05T17:18:00Z,28.4460,-96.3961,0.0,25.1,2 
TCOON,ioos:station:TCOON:057:1,2017-03-05T18:18:00Z,28.4460,-96.3961,0.0,25.2,2 
TCOON,ioos:station:TCOON:057:1,2017-03-05T19:18:00Z,28.4460,-96.3961,0.0,25.4,2 
TCOON,ioos:station:TCOON:057:1,2017-03-05T20:18:00Z,28.4460,-96.3961,0.0,25.6,2 
TCOON,ioos:station:TCOON:057:1,2017-03-05T21:18:00Z,28.4460,-96.3961,0.0,25.5,2 
TCOON,ioos:station:TCOON:057:1,2017-03-05T22:18:00Z,28.4460,-96.3961,0.0,25.7,2 
TCOON,ioos:station:TCOON:057:1,2017-03-05T23:18:00Z,28.4460,-96.3961,0.0,25.8,2 
TCOON,ioos:station:TCOON:057:1,2017-03-06T00:18:00Z,28.4460,-96.3961,0.0,25.8,2 
TCOON,ioos:station:TCOON:057:1,2017-03-06T01:18:00Z,28.4460,-96.3961,0.0,25.7,2 
TCOON,ioos:station:TCOON:057:1,2017-03-06T02:18:00Z,28.4460,-96.3961,0.0,25.6,2 
TCOON,ioos:station:TCOON:057:1,2017-03-06T03:18:00Z,28.4460,-96.3961,0.0,25.6,2 
TCOON,ioos:station:TCOON:057:1,2017-03-06T04:18:00Z,28.4460,-96.3961,0.0,25.6,2 
TCOON,ioos:station:TCOON:057:1,2017-03-06T05:18:00Z,28.4460,-96.3961,0.0,25.6,2 
TCOON,ioos:station:TCOON:057:1,2017-03-06T06:18:00Z,28.4460,-96.3961,0.0,25.6,2 
TCOON,ioos:station:TCOON:057:1,2017-03-06T07:18:00Z,28.4460,-96.3961,0.0,25.6,2 
TCOON,ioos:station:TCOON:057:1,2017-03-06T08:18:00Z,28.4460,-96.3961,0.0,25.6,2 
TCOON,ioos:station:TCOON:057:1,2017-03-06T09:18:00Z,28.4460,-96.3961,0.0,25.6,2 
TCOON,ioos:station:TCOON:057:1,2017-03-06T10:18:00Z,28.4460,-96.3961,0.0,25.6,2 
TCOON,ioos:station:TCOON:057:1,2017-03-06T11:18:00Z,28.4460,-96.3961,0.0,25.7,2 
TCOON,ioos:station:TCOON:057:1,2017-03-06T12:18:00Z,28.4460,-96.3961,0.0,25.7,2 
TCOON,ioos:station:TCOON:057:1,2017-03-06T13:18:00Z,28.4460,-96.3961,0.0,25.7,2 
TCOON,ioos:station:TCOON:057:1,2017-03-06T14:18:00Z,28.4460,-96.3961,0.0,25.7,2 
TCOON,ioos:station:TCOON:057:1,2017-03-06T15:18:00Z,28.4460,-96.3961,0.0,25.8,2 
TCOON,ioos:station:TCOON:057:1,2017-03-06T16:18:00Z,28.4460,-96.3961,0.0,25.9,2 
TCOON,ioos:station:TCOON:057:1,2017-03-06T17:18:00Z,28.4460,-96.3961,0.0,26.1,2 
TCOON,ioos:station:TCOON:057:1,2017-03-06T18:18:00Z,28.4460,-96.3961,0.0,26.4,2 
TCOON,ioos:station:TCOON:057:1,2017-03-06T19:18:00Z,28.4460,-96.3961,0.0,26.5,2 
TCOON,ioos:station:TCOON:057:1,2017-03-06T20:18:00Z,28.4460,-96.3961,0.0,26.7,2 
TCOON,ioos:station:TCOON:057:1,2017-03-06T21:18:00Z,28.4460,-96.3961,0.0,26.9,2 
TCOON,ioos:station:TCOON:057:1,2017-03-06T22:18:00Z,28.4460,-96.3961,0.0,27.5,2 
TCOON,ioos:station:TCOON:057:1,2017-03-06T23:18:00Z,28.4460,-96.3961,0.0,27.5,2 
TCOON,ioos:station:TCOON:057:1,2017-03-07T00:18:00Z,28.4460,-96.3961,0.0,27.3,2 
TCOON,ioos:station:TCOON:057:1,2017-03-07T01:18:00Z,28.4460,-96.3961,0.0,26.4,2 
TCOON,ioos:station:TCOON:057:1,2017-03-07T02:18:00Z,28.4460,-96.3961,0.0,26.3,2 
TCOON,ioos:station:TCOON:057:1,2017-03-07T03:18:00Z,28.4460,-96.3961,0.0,26.3,2 
TCOON,ioos:station:TCOON:057:1,2017-03-07T04:18:00Z,28.4460,-96.3961,0.0,26.5,2 
TCOON,ioos:station:TCOON:057:1,2017-03-07T05:18:00Z,28.4460,-96.3961,0.0,26.5,2 
TCOON,ioos:station:TCOON:057:1,2017-03-07T06:18:00Z,28.4460,-96.3961,0.0,26.6,2 
TCOON,ioos:station:TCOON:057:1,2017-03-07T07:18:00Z,28.4460,-96.3961,0.0,26.6,2 
TCOON,ioos:station:TCOON:057:1,2017-03-07T08:18:00Z,28.4460,-96.3961,0.0,26.6,2 
TCOON,ioos:station:TCOON:057:1,2017-03-07T09:18:00Z,28.4460,-96.3961,0.0,26.6,2 
TCOON,ioos:station:TCOON:057:1,2017-03-07T10:18:00Z,28.4460,-96.3961,0.0,26.5,2 
TCOON,ioos:station:TCOON:057:1,2017-03-07T11:18:00Z,28.4460,-96.3961,0.0,26.5,2 
TCOON,ioos:station:TCOON:057:1,2017-03-07T12:18:00Z,28.4460,-96.3961,0.0,26.8,2 
TCOON,ioos:station:TCOON:057:1,2017-03-07T13:18:00Z,28.4460,-96.3961,0.0,27.0,2 
TCOON,ioos:station:TCOON:057:1,2017-03-07T14:18:00Z,28.4460,-96.3961,0.0,27.0,2 
TCOON,ioos:station:TCOON:057:1,2017-03-07T15:18:00Z,28.4460,-96.3961,0.0,27.1,2 
TCOON,ioos:station:TCOON:057:1,2017-03-07T16:18:00Z,28.4460,-96.3961,0.0,27.1,2 
TCOON,ioos:station:TCOON:057:1,2017-03-07T17:18:00Z,28.4460,-96.3961,0.0,27.3,2 
TCOON,ioos:station:TCOON:057:1,2017-03-07T18:24:00Z,28.4460,-96.3961,0.0,27.5,2 
TCOON,ioos:station:TCOON:057:1,2017-03-07T19:24:00Z,28.4460,-96.3961,0.0,27.6,2 
TCOON,ioos:station:TCOON:057:1,2017-03-07T20:18:00Z,28.4460,-96.3961,0.0,27.6,2 
TCOON,ioos:station:TCOON:057:1,2017-03-07T21:18:00Z,28.4460,-96.3961,0.0,27.7,2 
TCOON,ioos:station:TCOON:057:1,2017-03-07T22:18:00Z,28.4460,-96.3961,0.0,28.1,2 
TCOON,ioos:station:TCOON:057:1,2017-03-08T00:18:00Z,28.4460,-96.3961,0.0,28.5,2 
TCOON,ioos:station:TCOON:057:1,2017-03-08T01:18:00Z,28.4460,-96.3961,0.0,28.6,2 
TCOON,ioos:station:TCOON:057:1,2017-03-08T02:18:00Z,28.4460,-96.3961,0.0,29.0,2 
TCOON,ioos:station:TCOON:057:1,2017-03-08T03:18:00Z,28.4460,-96.3961,0.0,28.8,2 
TCOON,ioos:station:TCOON:057:1,2017-03-08T04:18:00Z,28.4460,-96.3961,0.0,28.8,2 
TCOON,ioos:station:TCOON:057:1,2017-03-08T05:18:00Z,28.4460,-96.3961,0.0,28.4,2 
TCOON,ioos:station:TCOON:057:1,2017-03-08T06:18:00Z,28.4460,-96.3961,0.0,28.3,2 
TCOON,ioos:station:TCOON:057:1,2017-03-08T07:18:00Z,28.4460,-96.3961,0.0,28.0,2 
TCOON,ioos:station:TCOON:057:1,2017-03-08T08:18:00Z,28.4460,-96.3961,0.0,27.7,2 
TCOON,ioos:station:TCOON:057:1,2017-03-08T09:18:00Z,28.4460,-96.3961,0.0,27.4,2 
TCOON,ioos:station:TCOON:057:1,2017-03-08T10:18:00Z,28.4460,-96.3961,0.0,27.2,2 
TCOON,ioos:station:TCOON:057:1,2017-03-08T11:18:00Z,28.4460,-96.3961,0.0,26.9,2 
TCOON,ioos:station:TCOON:057:1,2017-03-08T12:18:00Z,28.4460,-96.3961,0.0,26.6,2 
TCOON,ioos:station:TCOON:057:1,2017-03-08T13:18:00Z,28.4460,-96.3961,0.0,26.6,2 
TCOON,ioos:station:TCOON:057:1,2017-03-08T14:18:00Z,28.4460,-96.3961,0.0,26.5,2 
TCOON,ioos:station:TCOON:057:1,2017-03-08T15:18:00Z,28.4460,-96.3961,0.0,26.6,2 
TCOON,ioos:station:TCOON:057:1,2017-03-08T16:18:00Z,28.4460,-96.3961,0.0,27.1,2 
TCOON,ioos:station:TCOON:057:1,2017-03-08T17:18:00Z,28.4460,-96.3961,0.0,27.4,2 
TCOON,ioos:station:TCOON:057:1,2017-03-08T18:18:00Z,28.4460,-96.3961,0.0,27.6,2 
TCOON,ioos:station:TCOON:057:1,2017-03-08T19:18:00Z,28.4460,-96.3961,0.0,27.9,2 
TCOON,ioos:station:TCOON:057:1,2017-03-08T20:18:00Z,28.4460,-96.3961,0.0,28.0,2 
TCOON,ioos:station:TCOON:057:1,2017-03-08T21:18:00Z,28.4460,-96.3961,0.0,27.7,2 
TCOON,ioos:station:TCOON:057:1,2017-03-08T22:18:00Z,28.4460,-96.3961,0.0,27.7,2 
TCOON,ioos:station:TCOON:057:1,2017-03-08T23:18:00Z,28.4460,-96.3961,0.0,27.3,2 
TCOON,ioos:station:TCOON:057:1,2017-03-09T00:18:00Z,28.4460,-96.3961,0.0,27.1,2 
TCOON,ioos:station:TCOON:057:1,2017-03-09T01:18:00Z,28.4460,-96.3961,0.0,26.9,2 
TCOON,ioos:station:TCOON:057:1,2017-03-09T02:18:00Z,28.4460,-96.3961,0.0,26.9,2 
TCOON,ioos:station:TCOON:057:1,2017-03-09T03:18:00Z,28.4460,-96.3961,0.0,27.2,2 
TCOON,ioos:station:TCOON:057:1,2017-03-09T04:18:00Z,28.4460,-96.3961,0.0,27.4,2 
TCOON,ioos:station:TCOON:057:1,2017-03-09T05:18:00Z,28.4460,-96.3961,0.0,27.3,2 
TCOON,ioos:station:TCOON:057:1,2017-03-09T06:18:00Z,28.4460,-96.3961,0.0,27.2,2 
TCOON,ioos:station:TCOON:057:1,2017-03-09T07:18:00Z,28.4460,-96.3961,0.0,27.1,2 
TCOON,ioos:station:TCOON:057:1,2017-03-09T08:18:00Z,28.4460,-96.3961,0.0,27.6,2 
TCOON,ioos:station:TCOON:057:1,2017-03-09T09:18:00Z,28.4460,-96.3961,0.0,27.3,2 
TCOON,ioos:station:TCOON:057:1,2017-03-09T10:18:00Z,28.4460,-96.3961,0.0,27.3,2 
TCOON,ioos:station:TCOON:057:1,2017-03-09T11:18:00Z,28.4460,-96.3961,0.0,27.2,2 
TCOON,ioos:station:TCOON:057:1,2017-03-09T12:18:00Z,28.4460,-96.3961,0.0,27.2,2 
TCOON,ioos:station:TCOON:057:1,2017-03-09T13:18:00Z,28.4460,-96.3961,0.0,27.1,2 
TCOON,ioos:station:TCOON:057:1,2017-03-09T14:18:00Z,28.4460,-96.3961,0.0,27.1,2 
TCOON,ioos:station:TCOON:057:1,2017-03-09T15:18:00Z,28.4460,-96.3961,0.0,27.2,2 
TCOON,ioos:station:TCOON:057:1,2017-03-09T16:18:00Z,28.4460,-96.3961,0.0,27.5,2 
TCOON,ioos:station:TCOON:057:1,2017-03-09T17:18:00Z,28.4460,-96.3961,0.0,27.7,2 
TCOON,ioos:station:TCOON:057:1,2017-03-09T18:18:00Z,28.4460,-96.3961,0.0,27.9,2 
TCOON,ioos:station:TCOON:057:1,2017-03-09T19:18:00Z,28.4460,-96.3961,0.0,28.1,2 
TCOON,ioos:station:TCOON:057:1,2017-03-09T20:18:00Z,28.4460,-96.3961,0.0,27.8,2 
TCOON,ioos:station:TCOON:057:1,2017-03-09T21:18:00Z,28.4460,-96.3961,0.0,28.2,2 
TCOON,ioos:station:TCOON:057:1,2017-03-09T22:18:00Z,28.4460,-96.3961,0.0,28.4,2 
TCOON,ioos:station:TCOON:057:1,2017-03-09T23:18:00Z,28.4460,-96.3961,0.0,28.4,2 
TCOON,ioos:station:TCOON:057:1,2017-03-10T00:18:00Z,28.4460,-96.3961,0.0,28.6,2 
TCOON,ioos:station:TCOON:057:1,2017-03-10T01:18:00Z,28.4460,-96.3961,0.0,28.5,2 
TCOON,ioos:station:TCOON:057:1,2017-03-10T02:18:00Z,28.4460,-96.3961,0.0,28.4,2 
TCOON,ioos:station:TCOON:057:1,2017-03-10T03:18:00Z,28.4460,-96.3961,0.0,28.0,2 
TCOON,ioos:station:TCOON:057:1,2017-03-10T04:30:00Z,28.4460,-96.3961,0.0,27.5,2 
TCOON,ioos:station:TCOON:057:1,2017-03-10T05:18:00Z,28.4460,-96.3961,0.0,27.1,2 
TCOON,ioos:station:TCOON:057:1,2017-03-10T07:00:00Z,28.4460,-96.3961,0.0,27.3,2 
TCOON,ioos:station:TCOON:057:1,2017-03-10T07:18:00Z,28.4460,-96.3961,0.0,27.4,2 
TCOON,ioos:station:TCOON:057:1,2017-03-10T08:18:00Z,28.4460,-96.3961,0.0,27.2,2 
TCOON,ioos:station:TCOON:057:1,2017-03-10T09:18:00Z,28.4460,-96.3961,0.0,27.5,2 
TCOON,ioos:station:TCOON:057:1,2017-03-10T10:18:00Z,28.4460,-96.3961,0.0,27.3,2 
TCOON,ioos:station:TCOON:057:1,2017-03-10T11:18:00Z,28.4460,-96.3961,0.0,27.1,2 
TCOON,ioos:station:TCOON:057:1,2017-03-10T12:18:00Z,28.4460,-96.3961,0.0,27.0,2 
TCOON,ioos:station:TCOON:057:1,2017-03-10T13:18:00Z,28.4460,-96.3961,0.0,26.8,2 
TCOON,ioos:station:TCOON:057:1,2017-03-10T14:18:00Z,28.4460,-96.3961,0.0,26.8,2 
TCOON,ioos:station:TCOON:057:1,2017-03-10T15:18:00Z,28.4460,-96.3961,0.0,26.9,2 
TCOON,ioos:station:TCOON:057:1,2017-03-10T16:18:00Z,28.4460,-96.3961,0.0,27.1,2 
TCOON,ioos:station:TCOON:057:1,2017-03-10T17:18:00Z,28.4460,-96.3961,0.0,27.6,2 
TCOON,ioos:station:TCOON:057:1,2017-03-10T18:18:00Z,28.4460,-96.3961,0.0,27.9,2 
TCOON,ioos:station:TCOON:057:1,2017-03-10T19:18:00Z,28.4460,-96.3961,0.0,28.0,2 
TCOON,ioos:station:TCOON:057:1,2017-03-10T20:18:00Z,28.4460,-96.3961,0.0,27.9,2 
TCOON,ioos:station:TCOON:057:1,2017-03-10T21:18:00Z,28.4460,-96.3961,0.0,28.0,2 
TCOON,ioos:station:TCOON:057:1,2017-03-10T22:18:00Z,28.4460,-96.3961,0.0,28.3,2 
TCOON,ioos:station:TCOON:057:1,2017-03-10T23:18:00Z,28.4460,-96.3961,0.0,28.4,2 
TCOON,ioos:station:TCOON:057:1,2017-03-11T00:18:00Z,28.4460,-96.3961,0.0,28.2,2 
TCOON,ioos:station:TCOON:057:1,2017-03-11T01:18:00Z,28.4460,-96.3961,0.0,27.9,2 
TCOON,ioos:station:TCOON:057:1,2017-03-11T02:18:00Z,28.4460,-96.3961,0.0,27.7,2 
TCOON,ioos:station:TCOON:057:1,2017-03-11T04:06:00Z,28.4460,-96.3961,0.0,27.4,2 
TCOON,ioos:station:TCOON:057:1,2017-03-11T05:18:00Z,28.4460,-96.3961,0.0,27.5,2 
TCOON,ioos:station:TCOON:057:1,2017-03-11T06:24:00Z,28.4460,-96.3961,0.0,27.4,2 
TCOON,ioos:station:TCOON:057:1,2017-03-11T07:18:00Z,28.4460,-96.3961,0.0,27.4,2 
TCOON,ioos:station:TCOON:057:1,2017-03-11T08:18:00Z,28.4460,-96.3961,0.0,27.4,2 
TCOON,ioos:station:TCOON:057:1,2017-03-11T09:18:00Z,28.4460,-96.3961,0.0,27.3,2 
TCOON,ioos:station:TCOON:057:1,2017-03-11T10:18:00Z,28.4460,-96.3961,0.0,27.1,2 
TCOON,ioos:station:TCOON:057:1,2017-03-11T11:18:00Z,28.4460,-96.3961,0.0,26.9,2 
TCOON,ioos:station:TCOON:057:1,2017-03-11T12:18:00Z,28.4460,-96.3961,0.0,26.8,2 
TCOON,ioos:station:TCOON:057:1,2017-03-11T13:18:00Z,28.4460,-96.3961,0.0,26.7,2 
TCOON,ioos:station:TCOON:057:1,2017-03-11T14:18:00Z,28.4460,-96.3961,0.0,26.7,2 
TCOON,ioos:station:TCOON:057:1,2017-03-11T15:18:00Z,28.4460,-96.3961,0.0,26.7,2 
TCOON,ioos:station:TCOON:057:1,2017-03-11T16:18:00Z,28.4460,-96.3961,0.0,27.0,2 
TCOON,ioos:station:TCOON:057:1,2017-03-11T17:18:00Z,28.4460,-96.3961,0.0,27.1,2 
TCOON,ioos:station:TCOON:057:1,2017-03-11T18:18:00Z,28.4460,-96.3961,0.0,27.3,2 
TCOON,ioos:station:TCOON:057:1,2017-03-11T19:18:00Z,28.4460,-96.3961,0.0,27.2,2 
TCOON,ioos:station:TCOON:057:1,2017-03-11T20:18:00Z,28.4460,-96.3961,0.0,27.7,2 
TCOON,ioos:station:TCOON:057:1,2017-03-11T21:18:00Z,28.4460,-96.3961,0.0,27.7,2 
TCOON,ioos:station:TCOON:057:1,2017-03-11T22:18:00Z,28.4460,-96.3961,0.0,27.8,2 
TCOON,ioos:station:TCOON:057:1,2017-03-11T23:24:00Z,28.4460,-96.3961,0.0,27.8,2 
TCOON,ioos:station:TCOON:057:1,2017-03-12T00:18:00Z,28.4460,-96.3961,0.0,27.7,2 
TCOON,ioos:station:TCOON:057:1,2017-03-12T01:18:00Z,28.4460,-96.3961,0.0,27.7,2 
TCOON,ioos:station:TCOON:057:1,2017-03-12T02:18:00Z,28.4460,-96.3961,0.0,27.6,2 
TCOON,ioos:station:TCOON:057:1,2017-03-12T03:18:00Z,28.4460,-96.3961,0.0,27.4,2 
TCOON,ioos:station:TCOON:057:1,2017-03-12T04:18:00Z,28.4460,-96.3961,0.0,27.3,2 
TCOON,ioos:station:TCOON:057:1,2017-03-12T05:18:00Z,28.4460,-96.3961,0.0,27.2,2 
TCOON,ioos:station:TCOON:057:1,2017-03-12T06:18:00Z,28.4460,-96.3961,0.0,27.1,2 
TCOON,ioos:station:TCOON:057:1,2017-03-12T07:18:00Z,28.4460,-96.3961,0.0,27.2,2 
TCOON,ioos:station:TCOON:057:1,2017-03-12T08:18:00Z,28.4460,-96.3961,0.0,26.9,2 
TCOON,ioos:station:TCOON:057:1,2017-03-12T09:18:00Z,28.4460,-96.3961,0.0,26.8,2 
TCOON,ioos:station:TCOON:057:1,2017-03-12T10:18:00Z,28.4460,-96.3961,0.0,26.7,2 
TCOON,ioos:station:TCOON:057:1,2017-03-12T11:18:00Z,28.4460,-96.3961,0.0,26.6,2 
TCOON,ioos:station:TCOON:057:1,2017-03-12T12:18:00Z,28.4460,-96.3961,0.0,26.4,2 
TCOON,ioos:station:TCOON:057:1,2017-03-12T13:18:00Z,28.4460,-96.3961,0.0,26.2,2 
TCOON,ioos:station:TCOON:057:1,2017-03-12T14:18:00Z,28.4460,-96.3961,0.0,25.8,2 
TCOON,ioos:station:TCOON:057:1,2017-03-12T15:18:00Z,28.4460,-96.3961,0.0,25.3,2 
TCOON,ioos:station:TCOON:057:1,2017-03-12T16:18:00Z,28.4460,-96.3961,0.0,25.1,2 
TCOON,ioos:station:TCOON:057:1,2017-03-12T17:18:00Z,28.4460,-96.3961,0.0,24.8,2 
TCOON,ioos:station:TCOON:057:1,2017-03-12T18:18:00Z,28.4460,-96.3961,0.0,24.5,2 
TCOON,ioos:station:TCOON:057:1,2017-03-12T19:18:00Z,28.4460,-96.3961,0.0,24.6,2 
TCOON,ioos:station:TCOON:057:1,2017-03-12T20:18:00Z,28.4460,-96.3961,0.0,24.6,2 
TCOON,ioos:station:TCOON:057:1,2017-03-12T21:18:00Z,28.4460,-96.3961,0.0,24.5,2 
TCOON,ioos:station:TCOON:057:1,2017-03-12T22:18:00Z,28.4460,-96.3961,0.0,24.4,2 
TCOON,ioos:station:TCOON:057:1,2017-03-12T23:18:00Z,28.4460,-96.3961,0.0,24.2,2 
TCOON,ioos:station:TCOON:057:1,2017-03-13T00:18:00Z,28.4460,-96.3961,0.0,23.9,2 
TCOON,ioos:station:TCOON:057:1,2017-03-13T01:18:00Z,28.4460,-96.3961,0.0,23.8,2 
TCOON,ioos:station:TCOON:057:1,2017-03-13T02:18:00Z,28.4460,-96.3961,0.0,23.4,2 
TCOON,ioos:station:TCOON:057:1,2017-03-13T03:18:00Z,28.4460,-96.3961,0.0,23.7,2 
TCOON,ioos:station:TCOON:057:1,2017-03-13T04:18:00Z,28.4460,-96.3961,0.0,23.2,2 
TCOON,ioos:station:TCOON:057:1,2017-03-13T05:18:00Z,28.4460,-96.3961,0.0,23.3,2 
TCOON,ioos:station:TCOON:057:1,2017-03-13T06:18:00Z,28.4460,-96.3961,0.0,23.4,2 
TCOON,ioos:station:TCOON:057:1,2017-03-13T07:18:00Z,28.4460,-96.3961,0.0,24.6,2 
TCOON,ioos:station:TCOON:057:1,2017-03-13T08:18:00Z,28.4460,-96.3961,0.0,24.8,2 
TCOON,ioos:station:TCOON:057:1,2017-03-13T09:18:00Z,28.4460,-96.3961,0.0,25.2,2 
TCOON,ioos:station:TCOON:057:1,2017-03-13T10:18:00Z,28.4460,-96.3961,0.0,25.0,2 